Year,Month,Day,Hour,Minute,Value (Times are PST for temperature in C)
2007,12,07,00,00,3.50
2007,12,07,00,01,3.50
2007,12,07,00,02,3.50
2007,12,07,00,03,3.50
2007,12,07,00,04,3.50
2007,12,07,00,05,3.50
2007,12,07,00,06,3.50
2007,12,07,00,07,3.50
2007,12,07,00,08,3.50
2007,12,07,00,09,3.50
2007,12,07,00,10,3.50
2007,12,07,00,11,3.50
2007,12,07,00,12,3.50
2007,12,07,00,13,3.50
2007,12,07,00,14,3.50
2007,12,07,00,15,3.50
2007,12,07,00,16,3.50
2007,12,07,00,17,3.50
2007,12,07,00,18,3.50
2007,12,07,00,19,3.60
2007,12,07,00,20,3.60
2007,12,07,00,21,3.60
2007,12,07,00,22,3.60
2007,12,07,00,23,3.60
2007,12,07,00,24,3.60
2007,12,07,00,25,3.60
2007,12,07,00,26,3.60
2007,12,07,00,27,3.60
2007,12,07,00,28,3.60
2007,12,07,00,29,3.60
2007,12,07,00,30,3.60
2007,12,07,00,31,3.60
2007,12,07,00,32,3.60
2007,12,07,00,33,3.60
2007,12,07,00,34,3.60
2007,12,07,00,35,3.60
2007,12,07,00,36,3.60
2007,12,07,00,37,3.60
2007,12,07,00,38,3.60
2007,12,07,00,39,3.60
2007,12,07,00,40,3.60
2007,12,07,00,41,3.60
2007,12,07,00,42,3.50
2007,12,07,00,43,3.50
2007,12,07,00,44,3.50
2007,12,07,00,45,3.50
2007,12,07,00,46,3.50
2007,12,07,00,47,3.50
2007,12,07,00,48,3.50
2007,12,07,00,49,3.50
2007,12,07,00,50,3.40
2007,12,07,00,51,3.40
2007,12,07,00,52,3.40
2007,12,07,00,53,3.40
2007,12,07,00,54,3.40
2007,12,07,00,55,3.40
2007,12,07,00,56,3.40
2007,12,07,00,57,3.40
2007,12,07,00,58,3.40
2007,12,07,00,59,3.30
2007,12,07,01,00,3.30
2007,12,07,01,01,3.30
2007,12,07,01,02,3.30
2007,12,07,01,03,3.30
2007,12,07,01,04,3.30
2007,12,07,01,05,3.30
2007,12,07,01,06,3.30
2007,12,07,01,07,3.30
2007,12,07,01,08,3.30
2007,12,07,01,09,3.30
2007,12,07,01,10,3.30
2007,12,07,01,11,3.30
2007,12,07,01,12,3.20
2007,12,07,01,13,3.20
2007,12,07,01,14,3.20
2007,12,07,01,15,3.20
2007,12,07,01,16,3.20
2007,12,07,01,17,3.20
2007,12,07,01,18,3.20
2007,12,07,01,19,3.20
2007,12,07,01,20,3.20
2007,12,07,01,21,3.20
2007,12,07,01,22,3.20
2007,12,07,01,23,3.20
2007,12,07,01,24,3.10
2007,12,07,01,25,3.10
2007,12,07,01,26,3.10
2007,12,07,01,27,3.10
2007,12,07,01,28,3.10
2007,12,07,01,29,3.10
2007,12,07,01,30,3.10
2007,12,07,01,31,3.00
2007,12,07,01,32,3.00
2007,12,07,01,33,3.00
2007,12,07,01,34,3.00
2007,12,07,01,35,2.90
2007,12,07,01,36,2.90
2007,12,07,01,37,2.90
2007,12,07,01,38,2.90
2007,12,07,01,39,2.90
2007,12,07,01,40,3.00
2007,12,07,01,41,3.00
2007,12,07,01,42,3.00
2007,12,07,01,43,2.90
2007,12,07,01,44,2.90
2007,12,07,01,45,2.90
2007,12,07,01,46,3.00
2007,12,07,01,47,2.90
2007,12,07,01,48,2.90
2007,12,07,01,49,2.90
2007,12,07,01,50,2.90
2007,12,07,01,51,2.90
2007,12,07,01,52,2.90
2007,12,07,01,53,2.90
2007,12,07,01,54,2.90
2007,12,07,01,55,2.90
2007,12,07,01,56,2.90
2007,12,07,01,57,2.80
2007,12,07,01,58,2.80
2007,12,07,01,59,2.90
2007,12,07,02,00,2.90
2007,12,07,02,01,2.90
2007,12,07,02,02,2.90
2007,12,07,02,03,2.90
2007,12,07,02,04,2.90
2007,12,07,02,05,2.90
2007,12,07,02,06,2.90
2007,12,07,02,07,2.90
2007,12,07,02,08,2.90
2007,12,07,02,09,2.90
2007,12,07,02,10,2.90
2007,12,07,02,11,2.90
2007,12,07,02,12,2.90
2007,12,07,02,13,2.90
2007,12,07,02,14,2.90
2007,12,07,02,15,2.90
2007,12,07,02,16,2.90
2007,12,07,02,17,2.90
2007,12,07,02,18,2.90
2007,12,07,02,19,2.90
2007,12,07,02,20,2.90
2007,12,07,02,21,2.90
2007,12,07,02,22,2.90
2007,12,07,02,23,3.00
2007,12,07,02,24,3.00
2007,12,07,02,25,3.00
2007,12,07,02,26,3.00
2007,12,07,02,27,3.00
2007,12,07,02,28,3.00
2007,12,07,02,29,3.00
2007,12,07,02,30,3.00
2007,12,07,02,31,3.00
2007,12,07,02,32,3.10
2007,12,07,02,33,3.10
2007,12,07,02,34,3.10
2007,12,07,02,35,3.10
2007,12,07,02,36,3.10
2007,12,07,02,37,3.10
2007,12,07,02,38,3.10
2007,12,07,02,39,3.20
2007,12,07,02,40,3.20
2007,12,07,02,41,3.20
2007,12,07,02,42,3.20
2007,12,07,02,43,3.20
2007,12,07,02,44,3.20
2007,12,07,02,45,3.20
2007,12,07,02,46,3.20
2007,12,07,02,47,3.20
2007,12,07,02,48,3.20
2007,12,07,02,49,3.20
2007,12,07,02,50,3.20
2007,12,07,02,51,3.20
2007,12,07,02,52,3.20
2007,12,07,02,53,3.20
2007,12,07,02,54,3.20
2007,12,07,02,55,3.20
2007,12,07,02,56,3.20
2007,12,07,02,57,3.20
2007,12,07,02,58,3.20
2007,12,07,02,59,3.20
2007,12,07,03,00,3.20
2007,12,07,03,01,3.20
2007,12,07,03,02,3.20
2007,12,07,03,03,3.20
2007,12,07,03,04,3.20
2007,12,07,03,05,3.20
2007,12,07,03,06,3.20
2007,12,07,03,07,3.20
2007,12,07,03,08,3.20
2007,12,07,03,09,3.20
2007,12,07,03,10,3.20
2007,12,07,03,11,3.20
2007,12,07,03,12,3.20
2007,12,07,03,13,3.20
2007,12,07,03,14,3.20
2007,12,07,03,15,3.20
2007,12,07,03,16,3.20
2007,12,07,03,17,3.20
2007,12,07,03,18,3.20
2007,12,07,03,19,3.20
2007,12,07,03,20,3.20
2007,12,07,03,21,3.20
2007,12,07,03,22,3.20
2007,12,07,03,23,3.20
2007,12,07,03,24,3.20
2007,12,07,03,25,3.20
2007,12,07,03,26,3.20
2007,12,07,03,27,3.20
2007,12,07,03,28,3.20
2007,12,07,03,29,3.20
2007,12,07,03,30,3.20
2007,12,07,03,31,3.20
2007,12,07,03,32,3.20
2007,12,07,03,33,3.20
2007,12,07,03,34,3.20
2007,12,07,03,35,3.20
2007,12,07,03,36,3.20
2007,12,07,03,37,3.20
2007,12,07,03,38,3.20
2007,12,07,03,39,3.20
2007,12,07,03,40,3.20
2007,12,07,03,41,3.20
2007,12,07,03,42,3.20
2007,12,07,03,43,3.10
2007,12,07,03,44,3.10
2007,12,07,03,45,3.10
2007,12,07,03,46,3.10
2007,12,07,03,47,3.10
2007,12,07,03,48,3.10
2007,12,07,03,49,3.10
2007,12,07,03,50,3.10
2007,12,07,03,51,3.10
2007,12,07,03,52,3.10
2007,12,07,03,53,3.10
2007,12,07,03,54,3.10
2007,12,07,03,55,3.10
2007,12,07,03,56,3.00
2007,12,07,03,57,3.00
2007,12,07,03,58,3.00
2007,12,07,03,59,2.90
2007,12,07,04,00,2.90
2007,12,07,04,01,2.90
2007,12,07,04,02,2.90
2007,12,07,04,03,2.90
2007,12,07,04,04,2.90
2007,12,07,04,05,2.90
2007,12,07,04,06,2.80
2007,12,07,04,07,2.80
2007,12,07,04,08,2.80
2007,12,07,04,09,2.80
2007,12,07,04,10,2.80
2007,12,07,04,11,2.80
2007,12,07,04,12,2.70
2007,12,07,04,13,2.70
2007,12,07,04,14,2.70
2007,12,07,04,15,2.70
2007,12,07,04,16,2.70
2007,12,07,04,17,2.70
2007,12,07,04,18,2.70
2007,12,07,04,19,2.70
2007,12,07,04,20,2.70
2007,12,07,04,21,2.70
2007,12,07,04,22,2.70
2007,12,07,04,23,2.70
2007,12,07,04,24,2.70
2007,12,07,04,25,2.70
2007,12,07,04,26,2.70
2007,12,07,04,27,2.70
2007,12,07,04,28,2.70
2007,12,07,04,29,2.70
2007,12,07,04,30,2.70
2007,12,07,04,31,2.70
2007,12,07,04,32,2.70
2007,12,07,04,33,2.70
2007,12,07,04,34,2.70
2007,12,07,04,35,2.70
2007,12,07,04,36,2.70
2007,12,07,04,37,2.70
2007,12,07,04,38,2.70
2007,12,07,04,39,2.70
2007,12,07,04,40,2.70
2007,12,07,04,41,2.70
2007,12,07,04,42,2.70
2007,12,07,04,43,2.70
2007,12,07,04,44,2.70
2007,12,07,04,45,2.70
2007,12,07,04,46,2.60
2007,12,07,04,47,2.60
2007,12,07,04,48,2.60
2007,12,07,04,49,2.60
2007,12,07,04,50,2.60
2007,12,07,04,51,2.60
2007,12,07,04,52,2.60
2007,12,07,04,53,2.50
2007,12,07,04,54,2.50
2007,12,07,04,55,2.50
2007,12,07,04,56,2.50
2007,12,07,04,57,2.50
2007,12,07,04,58,2.40
2007,12,07,04,59,2.40
2007,12,07,05,00,2.40
2007,12,07,05,01,2.40
2007,12,07,05,02,2.40
2007,12,07,05,03,2.40
2007,12,07,05,04,2.40
2007,12,07,05,05,2.40
2007,12,07,05,06,2.40
2007,12,07,05,07,2.40
2007,12,07,05,08,2.30
2007,12,07,05,09,2.30
2007,12,07,05,10,2.30
2007,12,07,05,11,2.30
2007,12,07,05,12,2.30
2007,12,07,05,13,2.30
2007,12,07,05,14,2.20
2007,12,07,05,15,2.20
2007,12,07,05,16,2.20
2007,12,07,05,17,2.20
2007,12,07,05,18,2.20
2007,12,07,05,19,2.20
2007,12,07,05,20,2.20
2007,12,07,05,21,2.20
2007,12,07,05,22,2.20
2007,12,07,05,23,2.20
2007,12,07,05,24,2.20
2007,12,07,05,25,2.20
2007,12,07,05,26,2.20
2007,12,07,05,27,2.20
2007,12,07,05,28,2.10
2007,12,07,05,29,2.10
2007,12,07,05,30,2.10
2007,12,07,05,31,2.10
2007,12,07,05,32,2.10
2007,12,07,05,33,2.10
2007,12,07,05,34,2.10
2007,12,07,05,35,2.10
2007,12,07,05,36,2.10
2007,12,07,05,37,2.00
2007,12,07,05,38,2.10
2007,12,07,05,39,2.10
2007,12,07,05,40,2.10
2007,12,07,05,41,2.10
2007,12,07,05,42,2.10
2007,12,07,05,43,2.10
2007,12,07,05,44,2.00
2007,12,07,05,45,2.00
2007,12,07,05,46,2.00
2007,12,07,05,47,2.00
2007,12,07,05,48,2.00
2007,12,07,05,49,2.00
2007,12,07,05,50,2.00
2007,12,07,05,51,2.00
2007,12,07,05,52,2.00
2007,12,07,05,53,2.00
2007,12,07,05,54,2.00
2007,12,07,05,55,2.00
2007,12,07,05,56,2.00
2007,12,07,05,57,2.00
2007,12,07,05,58,2.00
2007,12,07,05,59,1.90
2007,12,07,06,00,1.90
2007,12,07,06,01,2.00
2007,12,07,06,02,2.00
2007,12,07,06,03,2.00
2007,12,07,06,04,1.90
2007,12,07,06,05,1.90
2007,12,07,06,06,1.90
2007,12,07,06,07,1.90
2007,12,07,06,08,1.90
2007,12,07,06,09,1.90
2007,12,07,06,10,1.90
2007,12,07,06,11,1.90
2007,12,07,06,12,1.90
2007,12,07,06,13,1.90
2007,12,07,06,14,1.80
2007,12,07,06,15,1.80
2007,12,07,06,16,1.80
2007,12,07,06,17,1.80
2007,12,07,06,18,1.90
2007,12,07,06,19,1.90
2007,12,07,06,20,1.90
2007,12,07,06,21,1.90
2007,12,07,06,22,1.90
2007,12,07,06,23,1.90
2007,12,07,06,24,1.90
2007,12,07,06,25,2.00
2007,12,07,06,26,2.00
2007,12,07,06,27,2.00
2007,12,07,06,28,2.00
2007,12,07,06,29,2.00
2007,12,07,06,30,2.10
2007,12,07,06,31,2.10
2007,12,07,06,32,2.10
2007,12,07,06,33,2.10
2007,12,07,06,34,2.20
2007,12,07,06,35,2.20
2007,12,07,06,36,2.20
2007,12,07,06,37,2.20
2007,12,07,06,38,2.20
2007,12,07,06,39,2.20
2007,12,07,06,40,2.30
2007,12,07,06,41,2.30
2007,12,07,06,42,2.30
2007,12,07,06,43,2.30
2007,12,07,06,44,2.30
2007,12,07,06,45,2.30
2007,12,07,06,46,2.30
2007,12,07,06,47,2.30
2007,12,07,06,48,2.20
2007,12,07,06,49,2.20
2007,12,07,06,50,2.20
2007,12,07,06,51,2.20
2007,12,07,06,52,2.20
2007,12,07,06,53,2.20
2007,12,07,06,54,2.20
2007,12,07,06,55,2.20
2007,12,07,06,56,2.20
2007,12,07,06,57,2.20
2007,12,07,06,58,2.20
2007,12,07,06,59,2.30
2007,12,07,07,00,2.30
2007,12,07,07,01,2.30
2007,12,07,07,02,2.30
2007,12,07,07,03,2.30
2007,12,07,07,04,2.30
2007,12,07,07,05,2.30
2007,12,07,07,06,2.30
2007,12,07,07,07,2.30
2007,12,07,07,08,2.30
2007,12,07,07,09,2.30
2007,12,07,07,10,2.30
2007,12,07,07,11,2.30
2007,12,07,07,12,2.30
2007,12,07,07,13,2.30
2007,12,07,07,14,2.30
2007,12,07,07,15,2.30
2007,12,07,07,16,2.20
2007,12,07,07,17,2.20
2007,12,07,07,18,2.20
2007,12,07,07,19,2.20
2007,12,07,07,20,2.20
2007,12,07,07,21,2.20
2007,12,07,07,22,2.10
2007,12,07,07,23,2.10
2007,12,07,07,24,2.10
2007,12,07,07,25,2.10
2007,12,07,07,26,2.10
2007,12,07,07,27,2.10
2007,12,07,07,28,2.00
2007,12,07,07,29,2.00
2007,12,07,07,30,2.00
2007,12,07,07,31,2.00
2007,12,07,07,32,2.00
2007,12,07,07,33,2.00
2007,12,07,07,34,2.00
2007,12,07,07,35,1.90
2007,12,07,07,36,1.90
2007,12,07,07,37,1.90
2007,12,07,07,38,1.90
2007,12,07,07,39,1.90
2007,12,07,07,40,1.90
2007,12,07,07,41,1.90
2007,12,07,07,42,1.90
2007,12,07,07,43,1.90
2007,12,07,07,44,1.90
2007,12,07,07,45,1.80
2007,12,07,07,46,1.80
2007,12,07,07,47,1.80
2007,12,07,07,48,1.80
2007,12,07,07,49,1.70
2007,12,07,07,50,1.70
2007,12,07,07,51,1.70
2007,12,07,07,52,1.70
2007,12,07,07,53,1.70
2007,12,07,07,54,1.70
2007,12,07,07,55,1.70
2007,12,07,07,56,1.70
2007,12,07,07,57,1.70
2007,12,07,07,58,1.80
2007,12,07,07,59,1.80
2007,12,07,08,00,1.80
2007,12,07,08,01,1.90
2007,12,07,08,02,1.90
2007,12,07,08,03,2.00
2007,12,07,08,04,2.00
2007,12,07,08,05,2.10
2007,12,07,08,06,2.10
2007,12,07,08,07,2.10
2007,12,07,08,08,2.10
2007,12,07,08,09,2.10
2007,12,07,08,10,2.20
2007,12,07,08,11,2.20
2007,12,07,08,12,2.20
2007,12,07,08,13,2.20
2007,12,07,08,14,2.20
2007,12,07,08,15,2.20
2007,12,07,08,16,2.20
2007,12,07,08,17,2.20
2007,12,07,08,18,2.20
2007,12,07,08,19,2.20
2007,12,07,08,20,2.20
2007,12,07,08,21,2.20
2007,12,07,08,22,2.20
2007,12,07,08,23,2.20
2007,12,07,08,24,2.20
2007,12,07,08,25,2.20
2007,12,07,08,26,2.20
2007,12,07,08,27,2.20
2007,12,07,08,28,2.20
2007,12,07,08,29,2.20
2007,12,07,08,30,2.20
2007,12,07,08,31,2.20
2007,12,07,08,32,2.30
2007,12,07,08,33,2.30
2007,12,07,08,34,2.30
2007,12,07,08,35,2.30
2007,12,07,08,36,2.30
2007,12,07,08,37,2.30
2007,12,07,08,38,2.30
2007,12,07,08,39,2.30
2007,12,07,08,40,2.30
2007,12,07,08,41,2.30
2007,12,07,08,42,2.40
2007,12,07,08,43,2.40
2007,12,07,08,44,2.40
2007,12,07,08,45,2.40
2007,12,07,08,46,2.40
2007,12,07,08,47,2.40
2007,12,07,08,48,2.40
2007,12,07,08,49,2.40
2007,12,07,08,50,2.40
2007,12,07,08,51,2.50
2007,12,07,08,52,2.50
2007,12,07,08,53,2.50
2007,12,07,08,54,2.50
2007,12,07,08,55,2.50
2007,12,07,08,56,2.60
2007,12,07,08,57,2.60
2007,12,07,08,58,2.60
2007,12,07,08,59,2.60
2007,12,07,09,00,2.60
2007,12,07,09,01,2.60
2007,12,07,09,02,2.60
2007,12,07,09,03,2.60
2007,12,07,09,04,2.60
2007,12,07,09,05,2.60
2007,12,07,09,06,2.60
2007,12,07,09,07,2.60
2007,12,07,09,08,2.60
2007,12,07,09,09,2.60
2007,12,07,09,10,2.60
2007,12,07,09,11,2.60
2007,12,07,09,12,2.60
2007,12,07,09,13,2.60
2007,12,07,09,14,2.60
2007,12,07,09,15,2.60
2007,12,07,09,16,2.60
2007,12,07,09,17,2.60
2007,12,07,09,18,2.60
2007,12,07,09,19,2.60
2007,12,07,09,20,2.60
2007,12,07,09,21,2.60
2007,12,07,09,22,2.60
2007,12,07,09,23,2.60
2007,12,07,09,24,2.60
2007,12,07,09,25,2.60
2007,12,07,09,26,2.60
2007,12,07,09,27,2.60
2007,12,07,09,28,2.60
2007,12,07,09,29,2.60
2007,12,07,09,30,2.60
2007,12,07,09,31,2.60
2007,12,07,09,32,2.60
2007,12,07,09,33,2.60
2007,12,07,09,34,2.60
2007,12,07,09,35,2.60
2007,12,07,09,36,2.60
2007,12,07,09,37,2.60
2007,12,07,09,38,2.70
2007,12,07,09,39,2.80
2007,12,07,09,40,2.80
2007,12,07,09,41,2.90
2007,12,07,09,42,2.90
2007,12,07,09,43,2.90
2007,12,07,09,44,3.00
2007,12,07,09,45,3.10
2007,12,07,09,46,3.10
2007,12,07,09,47,3.30
2007,12,07,09,48,3.40
2007,12,07,09,49,3.50
2007,12,07,09,50,3.60
2007,12,07,09,51,3.70
2007,12,07,09,52,3.80
2007,12,07,09,53,3.90
2007,12,07,09,54,4.00
2007,12,07,09,55,4.00
2007,12,07,09,56,4.10
2007,12,07,09,57,4.00
2007,12,07,09,58,4.00
2007,12,07,09,59,4.00
2007,12,07,10,00,4.00
2007,12,07,10,01,4.00
2007,12,07,10,02,4.00
2007,12,07,10,03,4.00
2007,12,07,10,04,4.00
2007,12,07,10,05,4.00
2007,12,07,10,06,4.10
2007,12,07,10,07,4.10
2007,12,07,10,08,4.10
2007,12,07,10,09,4.20
2007,12,07,10,10,4.20
2007,12,07,10,11,4.30
2007,12,07,10,12,4.30
2007,12,07,10,13,4.30
2007,12,07,10,14,4.40
2007,12,07,10,15,4.40
2007,12,07,10,16,4.40
2007,12,07,10,17,4.40
2007,12,07,10,18,4.40
2007,12,07,10,19,4.50
2007,12,07,10,20,4.60
2007,12,07,10,21,4.60
2007,12,07,10,22,4.60
2007,12,07,10,23,4.60
2007,12,07,10,24,4.70
2007,12,07,10,25,4.70
2007,12,07,10,26,4.70
2007,12,07,10,27,4.70
2007,12,07,10,28,4.70
2007,12,07,10,29,4.70
2007,12,07,10,30,4.70
2007,12,07,10,31,4.80
2007,12,07,10,32,4.80
2007,12,07,10,33,4.80
2007,12,07,10,34,4.80
2007,12,07,10,35,4.80
2007,12,07,10,36,4.80
2007,12,07,10,37,4.80
2007,12,07,10,38,4.70
2007,12,07,10,39,4.70
2007,12,07,10,40,4.70
2007,12,07,10,41,4.70
2007,12,07,10,42,4.70
2007,12,07,10,43,4.60
2007,12,07,10,44,4.60
2007,12,07,10,45,4.60
2007,12,07,10,46,4.50
2007,12,07,10,47,4.50
2007,12,07,10,48,4.50
2007,12,07,10,49,4.60
2007,12,07,10,50,4.60
2007,12,07,10,51,4.60
2007,12,07,10,52,4.70
2007,12,07,10,53,4.70
2007,12,07,10,54,4.80
2007,12,07,10,55,4.80
2007,12,07,10,56,4.80
2007,12,07,10,57,4.80
2007,12,07,10,58,4.90
2007,12,07,10,59,4.90
2007,12,07,11,00,4.90
2007,12,07,11,01,4.90
2007,12,07,11,02,4.90
2007,12,07,11,03,4.90
2007,12,07,11,04,4.90
2007,12,07,11,05,4.90
2007,12,07,11,06,4.90
2007,12,07,11,07,4.90
2007,12,07,11,08,5.00
2007,12,07,11,09,5.00
2007,12,07,11,10,5.00
2007,12,07,11,11,5.00
2007,12,07,11,12,5.10
2007,12,07,11,13,5.10
2007,12,07,11,14,5.10
2007,12,07,11,15,5.10
2007,12,07,11,16,5.10
2007,12,07,11,17,5.10
2007,12,07,11,18,5.20
2007,12,07,11,19,5.10
2007,12,07,11,20,5.10
2007,12,07,11,21,5.20
2007,12,07,11,22,5.20
2007,12,07,11,23,5.20
2007,12,07,11,24,5.30
2007,12,07,11,25,5.30
2007,12,07,11,26,5.30
2007,12,07,11,27,5.20
2007,12,07,11,28,5.20
2007,12,07,11,29,5.20
2007,12,07,11,30,5.20
2007,12,07,11,31,5.30
2007,12,07,11,32,5.30
2007,12,07,11,33,5.30
2007,12,07,11,34,5.30
2007,12,07,11,35,5.30
2007,12,07,11,36,5.30
2007,12,07,11,37,5.30
2007,12,07,11,38,5.30
2007,12,07,11,39,5.30
2007,12,07,11,40,5.30
2007,12,07,11,41,5.30
2007,12,07,11,42,5.30
2007,12,07,11,43,5.30
2007,12,07,11,44,5.30
2007,12,07,11,45,5.30
2007,12,07,11,46,5.30
2007,12,07,11,47,5.20
2007,12,07,11,48,5.20
2007,12,07,11,49,5.20
2007,12,07,11,50,5.20
2007,12,07,11,51,5.30
2007,12,07,11,52,5.30
2007,12,07,11,53,5.20
2007,12,07,11,54,5.20
2007,12,07,11,55,5.20
2007,12,07,11,56,5.20
2007,12,07,11,57,5.10
2007,12,07,11,58,5.10
2007,12,07,11,59,5.10
2007,12,07,12,00,5.00
2007,12,07,12,01,4.90
2007,12,07,12,02,4.90
2007,12,07,12,03,4.90
2007,12,07,12,04,4.90
2007,12,07,12,05,4.90
2007,12,07,12,06,4.90
2007,12,07,12,07,4.90
2007,12,07,12,08,4.90
2007,12,07,12,09,4.90
2007,12,07,12,10,5.00
2007,12,07,12,11,5.10
2007,12,07,12,12,5.10
2007,12,07,12,13,5.20
2007,12,07,12,14,5.30
2007,12,07,12,15,5.30
2007,12,07,12,16,5.40
2007,12,07,12,17,5.40
2007,12,07,12,18,5.50
2007,12,07,12,19,5.60
2007,12,07,12,20,5.70
2007,12,07,12,21,5.70
2007,12,07,12,22,5.70
2007,12,07,12,23,5.70
2007,12,07,12,24,5.70
2007,12,07,12,25,5.50
2007,12,07,12,26,5.40
2007,12,07,12,27,5.40
2007,12,07,12,28,5.30
2007,12,07,12,29,5.30
2007,12,07,12,30,5.20
2007,12,07,12,31,5.20
2007,12,07,12,32,5.30
2007,12,07,12,33,5.30
2007,12,07,12,34,5.40
2007,12,07,12,35,5.40
2007,12,07,12,36,5.30
2007,12,07,12,37,5.30
2007,12,07,12,38,5.30
2007,12,07,12,39,5.30
2007,12,07,12,40,5.40
2007,12,07,12,41,5.40
2007,12,07,12,42,5.40
2007,12,07,12,43,5.40
2007,12,07,12,44,5.40
2007,12,07,12,45,5.40
2007,12,07,12,46,5.50
2007,12,07,12,47,5.50
2007,12,07,12,48,5.60
2007,12,07,12,49,5.60
2007,12,07,12,50,5.70
2007,12,07,12,51,5.70
2007,12,07,12,52,5.60
2007,12,07,12,53,5.70
2007,12,07,12,54,5.70
2007,12,07,12,55,5.70
2007,12,07,12,56,5.80
2007,12,07,12,57,5.80
2007,12,07,12,58,5.90
2007,12,07,12,59,5.80
2007,12,07,13,00,5.80
2007,12,07,13,01,5.70
2007,12,07,13,02,5.70
2007,12,07,13,03,5.60
2007,12,07,13,04,5.50
2007,12,07,13,05,5.30
2007,12,07,13,06,5.20
2007,12,07,13,07,5.20
2007,12,07,13,08,5.20
2007,12,07,13,09,5.20
2007,12,07,13,10,5.20
2007,12,07,13,11,5.20
2007,12,07,13,12,5.20
2007,12,07,13,13,5.10
2007,12,07,13,14,5.00
2007,12,07,13,15,4.90
2007,12,07,13,16,5.00
2007,12,07,13,17,5.00
2007,12,07,13,18,5.10
2007,12,07,13,19,5.10
2007,12,07,13,20,5.20
2007,12,07,13,21,5.20
2007,12,07,13,22,5.10
2007,12,07,13,23,5.00
2007,12,07,13,24,5.00
2007,12,07,13,25,5.00
2007,12,07,13,26,5.10
